Location: Ernsee
(50.8780°N, 12.0389°E)
Time: 21:53:05
(UTC+00:00)

ALOS - Pass Details

Date: 20 January 2020
Orbit: 683 x 686 km, 97.8° (Epoch: 25 February)

Event Time Altitude Azimuth Distance (km) Brightness Sun altitude
Rises 05:41:26 0° 6° (N) 3,064 5.5 -12.7°
Reaches altitude 10° 05:43:55 10° 355° (N) 2,143 4.6 -12.3°
Maximum altitude 05:47:54 29° 297° (WNW) 1,261 3.1 -11.7°
Drops below altitude 10° 05:51:53 10° 238° (WSW) 2,128 4.4 -11.1°
Sets 05:54:21 0° 227° (SW) 3,039 5.3 -10.8°
